Location: Aufkirchen
(47.9603°N, 11.3653°E)
Time: 22:27:10
(UTC+01:00)

ISS - Visible Passes

Search period start: 21 February 2018 00:00
Search period end: 03 March 2018 00:00
Orbit: 403 x 407 km, 51.6° (Epoch: 22 February)

Date Brightness Start Highest point End Pass type
(mag) Time Alt. Az. Time Alt. Az. Time Alt. Az.
26 Feb -1.1 06:24:31 10° S 06:26:58 20° SE 06:29:25 10° E visible
27 Feb -0.8 05:33:42 10° SSE 05:34:56 12° SE 05:36:11 10° ESE visible
28 Feb -2.5 06:15:37 10° SW 06:18:41 38° SE 06:21:45 10° ENE visible
01 Mar -1.7 05:24:06 11° SSW 05:26:33 23° SE 05:29:14 10° E visible
02 Mar -1.2 04:34:15 14° SE 04:34:28 14° SE 04:36:17 10° ESE visible
02 Mar -3.7 06:07:13 10° WSW 06:10:28 73° SSE 06:13:44 10° ENE visible
